Newark, NJ

8:03 AM EST on February 11, 2016 (GMT -0500)
Newark International

Weather History for KEWR - April, 2014

Change the Weather History Date:

Thursday, April 10, 2014

  Actual Average Record
Temperature  
Mean Temperature 51 °F 51 °F  
Max Temperature 64 °F 60 °F 82 °F (1955)
Min Temperature 38 °F 42 °F 28 °F (1997)
Degree Days  
Heating Degree Days 14 14  
Month to date heating degree days 151 159  
Since 1 July heating degree days 4860 4503  
Cooling Degree Days 0 0  
Month to date cooling degree days 0 0  
Year to date cooling degree days 0 1  
Moisture  
Dew Point 26 °F    
Average Humidity 36    
Maximum Humidity 47    
Minimum Humidity 24    
Precipitation  
Precipitation 0.00 in 0.15 in 2.57 in (1983)
Month to date precipitation 1.17 1.47  
Year to date precipitation 12.54 12.07  
Snow  
Snow 0.00 in 0.00 in 0.30 in (1974)
Month to date snowfall 0.0 0.5  
Since 1 July snowfall 60.7 28.1  
Snow Depth 0.00 in    
Sea Level Pressure  
Sea Level Pressure 30.11 in    
Wind  
Wind Speed 9 mph (South)    
Max Wind Speed 18 mph    
Max Gust Speed 30 mph    
Visibility 10 miles    
Events      
T = Trace of Precipitation, MM = Missing Value Source: NWS Daily Summary

Daily Weather History Graph

Daily Weather History Graph

Search for Another Location

Airport or City:

Trip Planner

Search our weather history database for the weather conditions in past years. The results will help you decide how hot, cold, wet, or windy it might be!

Date:

Astronomy

Apr. 10, 2014 Rise Set
Actual Time 6:25 AM EDT 7:30 PM EDT
Civil Twilight 5:57 AM EDT 7:58 PM EDT
Nautical Twilight 5:24 AM EDT 8:32 PM EDT
Astronomical Twilight 4:49 AM EDT 9:07 PM EDT
Moon 3:10 PM EDT (4/10) 3:48 AM EDT (4/10)
Length of Visible Light 14h 01m
Length of Day
13h 05m
Waxing Gibbous, 79% of the Moon is Illuminated
Apr 10
Waxing Gibbous
Apr 15
Full
Apr 22
Last Quarter
Apr 29
New
May 6
First Quarter

Hourly Weather History & Observations

Time (EDT) Temp. Windchill Dew Point Humidity Pressure Visibility Wind Dir Wind Speed Gust Speed Precip Events Conditions
12:51 AM 45.0 °F 39.7 °F 16.0 °F 31% 30.06 in 10.0 mi North 10.4 mph - N/A   Clear
1:51 AM 41.0 °F 35.8 °F 17.1 °F 38% 30.06 in 10.0 mi North 8.1 mph - N/A   Clear
2:51 AM 44.1 °F - 14.0 °F 30% 30.09 in 10.0 mi Calm Calm - N/A   Clear
3:51 AM 42.1 °F 39.2 °F 17.1 °F 37% 30.10 in 10.0 mi West 4.6 mph - N/A   Clear
4:51 AM 41.0 °F 38.0 °F 18.0 °F 40% 30.12 in 10.0 mi WSW 4.6 mph - N/A   Clear
5:51 AM 39.9 °F - 19.9 °F 45% 30.14 in 10.0 mi Calm Calm - N/A   Clear
6:51 AM 41.0 °F 37.1 °F 21.9 °F 47% 30.17 in 10.0 mi WSW 5.8 mph - N/A   Clear
7:51 AM 45.0 °F 40.6 °F 24.1 °F 44% 30.20 in 10.0 mi WSW 8.1 mph - N/A   Clear
8:51 AM 48.9 °F - 21.9 °F 35% 30.21 in 10.0 mi SSE 5.8 mph - N/A   Clear
9:51 AM 52.0 °F - 19.0 °F 27% 30.22 in 10.0 mi SW 10.4 mph - N/A   Clear
10:51 AM 55.0 °F - 19.9 °F 25% 30.22 in 10.0 mi South 12.7 mph 19.6 mph N/A   Clear
11:51 AM 59.0 °F - 24.1 °F 26% 30.19 in 10.0 mi South 9.2 mph 24.2 mph N/A   Partly Cloudy
12:51 PM 61.0 °F - 26.1 °F 26% 30.16 in 10.0 mi Variable 6.9 mph - N/A   Partly Cloudy
1:51 PM 62.1 °F - 28.0 °F 28% 30.13 in 10.0 mi Variable 4.6 mph 17.3 mph N/A   Partly Cloudy
1:54 PM 62.6 °F - 28.4 °F 27% 30.13 in 10.0 mi South 11.5 mph 23.0 mph N/A   Partly Cloudy
2:51 PM 60.1 °F - 28.0 °F 30% 30.11 in 10.0 mi SSE 16.1 mph 20.7 mph N/A   Partly Cloudy
3:51 PM 59.0 °F - 28.9 °F 32% 30.09 in 10.0 mi SSE 16.1 mph 24.2 mph N/A   Partly Cloudy
4:51 PM 60.1 °F - 30.0 °F 32% 30.06 in 10.0 mi SSE 13.8 mph 21.9 mph N/A   Scattered Clouds
5:51 PM 60.1 °F - 35.1 °F 39% 30.05 in 10.0 mi SSE 10.4 mph 20.7 mph N/A   Scattered Clouds
5:58 PM 60.8 °F - 35.6 °F 39% 30.05 in 10.0 mi SSE 11.5 mph - N/A   Mostly Cloudy
6:51 PM 59.0 °F - 36.0 °F 42% 30.05 in 10.0 mi SSE 11.5 mph 18.4 mph N/A   Mostly Cloudy
7:51 PM 57.9 °F - 37.0 °F 46% 30.05 in 10.0 mi South 12.7 mph - N/A   Mostly Cloudy
8:51 PM 57.0 °F - 32.0 °F 39% 30.06 in 10.0 mi South 16.1 mph - N/A   Mostly Cloudy
9:51 PM 55.0 °F - 30.9 °F 40% 30.06 in 10.0 mi South 10.4 mph - N/A   Mostly Cloudy
10:51 PM 55.4 °F - 32.0 °F 41% 30.05 in 10.0 mi South 11.5 mph - N/A   Mostly Cloudy
11:51 PM 55.9 °F - 32.0 °F 40% 30.04 in 10.0 mi SSW 12.7 mph - N/A   Overcast